Location: Newark
(0.5300°S, 127.4800°E)
Time: 15:43:20
(UTC+00:00)

A-11 Canister half - Pass Details

Date: 23 September 2019
Orbit: 1514 x 1686 km, 47.2° (Epoch: 21 October)

Event Time Altitude Azimuth Distance (km) Brightness Sun altitude
Rises 23:28:38 0° 255° (WSW) 4,823 11.1 31.6°
Reaches altitude 10° 23:33:07 10° 272° (W) 3,801 10.6 32.7°
Maximum altitude 23:39:13 19° 312° (NW) 3,127 10.4 34.2°
Drops below altitude 10° 23:45:14 10° 353° (N) 3,711 11.1 35.7°
Sets 23:49:35 0° 11° (N) 4,669 11.7 36.8°
